Location: Cuiry
(49.3858°N, 3.7708°E)
Time: 18:15:08
(UTC+00:00)

PSLV R/B - Visible Passes

Search period start: 11 April 2026 00:00
Search period end: 21 April 2026 00:00
Orbit: 559 x 586 km, 98.0° (Epoch: 11 April)

Date Brightness Start Highest point End Pass type
(mag) Time Alt. Az. Time Alt. Az. Time Alt. Az.
11 Apr 4.8 19:02:48 10° S 19:06:40 43° W 19:10:35 10° NNW visible
12 Apr 4.9 19:05:29 10° S 19:09:20 40° W 19:13:13 10° NNW visible
13 Apr 5.0 19:08:12 10° SSW 19:11:59 38° W 19:15:51 10° NNW visible
14 Apr 5.1 19:10:54 10° SSW 19:14:39 36° W 19:18:29 10° NNW visible
15 Apr 5.2 19:13:36 10° SSW 19:17:19 34° W 19:21:06 10° NNW visible
16 Apr 5.3 19:16:18 10° SSW 19:19:59 32° W 19:23:43 10° NNW visible
17 Apr 5.4 19:19:01 10° SSW 19:22:39 31° W 19:26:19 10° NNW visible
18 Apr 5.5 19:21:44 10° SSW 19:25:17 29° W 19:28:55 10° NW visible
19 Apr 5.6 19:24:26 10° SSW 19:27:57 28° W 19:31:31 10° NW visible
20 Apr 5.7 19:27:09 10° SSW 19:30:36 26° W 19:34:06 10° NW visible
